TimeMDT,TemperatureF,Dew PointF,Humidity,Sea Level PressureIn,VisibilityMPH,Wind Direction,Wind SpeedMPH,Gust SpeedMPH,PrecipitationIn,Events,Conditions,WindDirDegrees,DateUTC
12:00 AM,11,8,80,29.55,,ENE,8.1,,,,,60,2012-10-13 06:00:00
1:00 AM,12.2,8.8,86,29.56,-9999.0,NE,9.2,-,N/A,,Unknown,50,2012-10-13 07:00:00
2:00 AM,14.9,11.5,86,29.56,-9999.0,NNE,3.5,-,N/A,,Unknown,20,2012-10-13 08:00:00
5:00 AM,15.4,10.0,79,29.60,-9999.0,North,6.9,-,N/A,,Unknown,360,2012-10-13 11:00:00
6:00 AM,11,6,71,29.61,,North,6.9,,,,,350,2012-10-13 12:00:00
6:00 AM,10.6,5.9,81,29.61,-9999.0,North,6.9,-,N/A,,Unknown,350,2012-10-13 12:00:00
7:00 AM,10.0,6.6,86,29.61,-9999.0,North,6.9,-,N/A,,Unknown,360,2012-10-13 13:00:00
8:00 AM,19.4,12.4,74,29.62,-9999.0,NE,3.5,-,N/A,,Unknown,40,2012-10-13 14:00:00
9:00 AM,16.7,11.3,79,29.62,-9999.0,NE,5.8,-,N/A,,Unknown,50,2012-10-13 15:00:00
10:00 AM,18.7,13.6,81,29.63,-9999.0,ENE,3.5,-,N/A,,Unknown,70,2012-10-13 16:00:00
11:00 AM,19.6,15.4,84,29.62,-9999.0,ENE,3.5,-,N/A,,Unknown,60,2012-10-13 17:00:00
12:00 PM,21,17,78,29.62,,SW,2.3,,,,,220,2012-10-13 18:00:00
12:00 PM,21.4,17.1,83,29.62,-9999.0,SW,2.3,-,0.01,,Unknown,220,2012-10-13 18:00:00
2:00 PM,24.4,17.4,75,29.63,-9999.0,NNW,2.3,-,N/A,,Unknown,330,2012-10-13 20:00:00
5:00 PM,22.1,19.0,88,29.65,-9999.0,WNW,24.2,-,N/A,,Unknown,290,2012-10-13 23:00:00
6:00 PM,22,18,80,29.65,,WNW,21.9,,,,,290,2012-10-14 00:00:00
6:00 PM,22.3,18.5,85,29.65,-9999.0,WNW,21.9,-,N/A,,Unknown,290,2012-10-14 00:00:00
7:00 PM,21.7,18.0,85,29.65,-9999.0,WNW,24.2,-,N/A,,Unknown,300,2012-10-14 01:00:00
9:00 PM,21.7,17.8,85,29.63,-9999.0,WNW,25.3,-,N/A,,Unknown,290,2012-10-14 03:00:00
10:00 PM,21.7,18.5,87,29.63,-9999.0,WNW,21.9,-,N/A,,Unknown,290,2012-10-14 04:00:00
11:00 PM,21.9,19.6,91,29.63,-9999.0,WNW,21.9,-,0.01,,Unknown,290,2012-10-14 05:00:00